www.pogodaiklimat.ru

Погода и климат >> Архив погоды >> Великобритания >> Болтасаунд


ПОГОДА в Болтасаунде

  • Прогноз погоды в Болтасаунде
  • Монитор погоды в Болтасаунде

АРХИВ ПОГОДЫ в Болтасаунде

Время (UTC), дата Ветер
(напр.,м/с)
 
Видим.   Явления Облачность Т
(С)
Тd
(С)
f
(%)
Тe
(С)
Тes
(С)
Комфортность P
(гПа)
Po
(гПа)
Тmin
(С)
Tmax
(С)
R
(мм)
R24
(мм)
S
(см)
13 14.07 СЗ 5 40 км н/о +12.6 +9.2 80 +10 +10 1024.1 1022.3
14 14.07 СЗ 5 11 км дым н/о +12.6 +10.4 86 +10 +10 1024.1 1022.2
15 14.07 СЗ 6 30 км н/о +12.8 +11.4 91 +10 +10 1023.9 1022.1
16 14.07 З 6 26 км н/о +12.6 +10.5 87 +10 +10 1023.8 1022.0
17 14.07 З 6 35 км н/о +12.7 +10.2 85 +10 +10 1023.7 1021.8
18 14.07 СЗ 6 35 км н/о +12.2 +9.5 84 +10 +10 1023.5 1021.7 +14.0
19 14.07 СЗ 5 50 км н/о +11.8 +8.9 82 +9 +9 1023.4 1021.6
20 14.07 З 4 50 км н/о +11.7 +9.2 85 +9 +9 1023.1 1021.3
21 14.07 СЗ 4 45 км н/о +11.4 +8.2 81 +9 +9 1023.0 1021.1
22 14.07 СЗ 4 50 км н/о +11.3 +8.6 83 +9 +9 1022.8 1020.9
23 14.07 З 2 30 км н/о +11.3 +9.7 90 +10 +10 1022.3 1020.5
00 15.07 З 4 50 км н/о +11.6 +10.1 91 +9 +9 1022.3 1020.5
01 15.07 З 5 6000 м дымка н/о +11.6 +10.8 95 +9 +9 1021.9 1020.1
02 15.07 З 5 1600 м дымка н/о +11.6 +11.3 98 +9 +9 1021.5 1019.6
03 15.07 З 7 1400 м в посл. час туман н/о +11.6 +11.4 99 +8 +8 1020.9 1019.1
04 15.07 З 7 2500 м в посл. час дождь н/о +11.9 +11.8 99 +9 +9 1020.7 1018.9
05 15.07 З 8 2600 м дымка н/о +12.2 +12.1 99 +9 +9 1020.0 1018.2
06 15.07 З 7 7000 м дымка н/о +12.2 +12.1 99 +9 +9 1019.7 1017.9 +11.1 1
07 15.07 З 6 6000 м дымка н/о +12.6 +12.5 99 +10 +10 1019.8 1018.0
08 15.07 З 7 700 м туман н/о +12.9 +12.8 99 +10 +10 1019.6 1017.8
09 15.07 З 7 1600 м в посл. час туман н/о +13.0 +12.9 99 +10 +10 1019.6 1017.8
10 15.07 СЗ 6 2700 м в посл. час туман н/о +12.8 +12.7 99 +10 +10 1019.8 1017.9
11 15.07 СЗ 7 17 км н/о +13.1 +12.8 98 +10 +10 1019.7 1017.9
12 15.07 СЗ 7 20 км н/о +13.9 +13.0 94 +11 +11 1019.6 1017.8 0.2
13 15.07 СЗ 7 19 км н/о +14.4 +12.8 90 +12 +12 1019.5 1017.7
14 15.07 СЗ 6 14 км н/о +13.3 +12.0 92 +11 +11 1019.7 1017.9
15 15.07 СЗ 6 13 км н/о +13.2 +12.3 94 +11 +11 1019.8 1017.9
16 15.07 СЗ 6 22 км н/о +13.1 +12.1 94 +11 +11 1019.9 1018.1
17 15.07 СЗ 5 1700 м дымка н/о +12.7 +12.3 97 +10 +10 1019.8 1018.0
18 15.07 СЗ 4 1900 м в посл. час туман н/о +12.6 +12.2 97 +11 +11 1019.5 1017.6 +14.8 0.2
19 15.07 СЗ 3 6000 м дымка н/о +12.6 +12.1 97 +11 +11 1019.4 1017.6
20 15.07 С 3 1200 м дымка н/о +12.1 +11.6 97 +11 +11 1019.5 1017.7
21 15.07 СВ 2 6000 м дымка н/о +11.6 +11.3 98 +10 +10 1019.4 1017.6
22 15.07 В 2 2900 м дымка н/о +11.3 +11.0 98 +10 +10 1019.5 1017.6
23 15.07 СВ 3 8000 м дымка н/о +11.1 +10.8 98 +9 +9 1019.5 1017.6
00 16.07 В 2 8000 м дымка н/о +10.8 +10.6 99 +9 +9 1019.4 1017.5
01 16.07 В 2 14 км н/о +10.7 +10.4 98 +10 +10 1019.1 1017.3
02 16.07 ЮВ 2 13 км н/о +10.6 +10.2 97 +9 +9 1018.8 1017.0
03 16.07 ЮВ 2 21 км н/о +10.6 +10.2 97 +9 +9 1018.5 1016.7
04 16.07 ЮВ 3 29 км н/о +10.7 +10.1 96 +9 +9 1018.2 1016.4
05 16.07 ЮВ 3 11 км н/о +10.9 +10.2 95 +9 +9 1018.0 1016.2
06 16.07 ЮВ 3 15 км н/о +11.1 +10.4 95 +9 +9 1017.9 1016.0 +10.5
07 16.07 ЮВ 4 16 км н/о +11.6 +10.5 93 +9 +9 1017.7 1015.9
08 16.07 ЮВ 4 6000 м дымка н/о +11.5 +11.1 97 +9 +9 1017.5 1015.7
09 16.07 ЮВ 4 11 км н/о +11.8 +10.7 93 +10 +10 1017.3 1015.4
10 16.07 ЮВ 4 3500 м дымка н/о +11.5 +11.0 97 +9 +9 1017.0 1015.2
11 16.07 ЮВ 4 4200 м дымка н/о +11.9 +11.5 97 +10 +10 1016.7 1014.9
12 16.07 ЮВ 4 5000 м слаб. ливневой дождь н/о +11.7 +11.5 99 +9 +9 1016.7 1014.9 1
13 16.07 Ю 5 3400 м в посл. час дождь н/о +12.0 +11.7 98 +10 +10 1016.5 1014.7
14 16.07 ЮВ 4 4800 м дымка н/о +12.1 +11.9 99 +10 +10 1016.3 1014.5
15 16.07 Ю 5 7000 м дымка н/о +12.3 +12.0 98 +10 +10 1016.2 1014.3
16 16.07 Ю 5 7000 м дымка н/о +12.5 +12.0 97 +10 +10 1015.9 1014.0
17 16.07 Ю 5 4500 м дымка н/о +12.1 +11.8 98 +9 +9 1015.7 1013.9
18 16.07 Ю 5 8000 м дымка н/о +12.1 +11.7 97 +10 +10 1015.4 1013.6 +12.9 1
19 16.07 ЮВ 5 900 м туман н/о +11.8 +11.5 98 +9 +9 1015.1 1013.2
20 16.07 Ю 4 1000 м в посл. час туман н/о +11.8 +11.7 99 +10 +10 1015.0 1013.2
21 16.07 Ю 4 700 м туман н/о +11.6 +11.5 99 +9 +9 1014.9 1013.0
22 16.07 Ю 5 400 м туман н/о +11.6 +11.6 100 +9 +9 1014.8 1013.0
23 16.07 ЮВ 4 400 м слаб. морось н/о +11.6 +11.6 100 +9 +9 1014.5 1012.6
00 17.07 Ю 4 500 м туман н/о +11.6 +11.6 100 +9 +9 1014.1 1012.3 0.0
01 17.07 ЮВ 4 700 м туман н/о +11.6 +11.6 100 +9 +9 1013.7 1011.9
02 17.07 Ю 4 600 м туман н/о +11.6 +11.6 100 +9 +9 1013.4 1011.5
03 17.07 ЮВ 3 1600 м в посл. час туман н/о +11.6 +11.6 100 +10 +10 1013.0 1011.2
04 17.07 ЮВ 3 1400 м в посл. час туман н/о +11.7 +11.7 100 +10 +10 1012.7 1010.9
05 17.07 ЮВ 3 2100 м в посл. час туман н/о +11.7 +11.7 100 +10 +10 1012.1 1010.3
06 17.07 ЮВ 5 1900 м дымка н/о +11.9 +11.9 100 +9 +9 1011.8 1010.0 +11.4 0.2
07 17.07 ЮВ 6 10 км дымка н/о +12.1 +12.1 100 +9 +9 1011.5 1009.7
08 17.07 ЮВ 6 9000 м н/о +12.5 +12.5 100 +10 +10 1011.1 1009.3
09 17.07 ЮВ 7 9000 м дымка н/о +12.5 +12.5 100 +9 +9 1010.8 1009.0
10 17.07 ЮВ 7 17 км н/о +12.8 +12.6 99 +10 +10 1010.3 1008.5
11 17.07 ЮВ 7 18 км н/о +12.8 +12.2 96 +10 +10 1009.8 1008.0
12 17.07 ЮВ 6 2700 м дымка н/о +12.6 +12.1 97 +10 +10 1009.2 1007.4 0.2
13 17.07 ЮВ 7 3700 м дымка н/о +12.6 +12.4 99 +10 +10 1008.8 1007.0
14 17.07 ЮВ 7 3000 м дымка н/о +12.8 +12.1 96 +10 +10 1008.1 1006.3
15 17.07 ЮВ 5 1600 м дымка н/о +12.6 +12.3 98 +10 +10 1007.4 1005.6
16 17.07 ЮВ 6 800 м туман н/о +12.4 +12.3 99 +10 +10 1006.7 1004.9
17 17.07 Ю 6 3300 м в посл. час туман н/о +12.5 +12.4 99 +10 +10 1005.8 1004.0
18 17.07 Ю 5 3500 м слаб. ливневой дождь н/о +12.3 +12.2 99 +10 +10 1005.7 1003.9 +13.3 0.6
19 17.07 ЮВ 6 3800 м слаб. дождь н/о +12.2 +12.1 99 +9 +9 1005.1 1003.3
20 17.07 ЮВ 5 3800 м слаб. дождь н/о +12.3 +12.2 99 +10 +10 1004.8 1003.0
21 17.07 ЮВ 6 5000 м в посл. час дождь н/о +12.3 +12.3 100 +10 +10 1004.4 1002.6
22 17.07 ЮВ 6 5000 м в посл. час дождь н/о +12.2 +12.2 100 +9 +9 1004.0 1002.2
23 17.07 ЮВ 6 7000 м дымка н/о +12.3 +12.1 99 +9 +9 1003.6 1001.8
00 18.07 ЮВ 6 4000 м дымка н/о +12.4 +12.2 99 +10 +10 1003.2 1001.4 4
01 18.07 Ю 6 2700 м в посл. час дождь н/о +12.3 +12.1 99 +9 +9 1002.7 1000.9
02 18.07 Ю 6 2100 м слаб. ливневой дождь н/о +12.3 +12.2 99 +9 +9 1002.2 1000.4
03 18.07 Ю 5 2900 м слаб. морось н/о +12.2 +12.2 100 +10 +10 1001.5 999.8
04 18.07 ЮВ 6 2800 м слаб. морось с дождем н/о +12.2 +12.2 100 +9 +9 1000.9 999.1
05 18.07 ЮВ 6 3900 м слаб. дождь н/о +12.1 +12.1 100 +9 +9 1000.6 998.8
06 18.07 Ю 6 4600 м дождь н/о +12.1 +12.1 100 +9 +9 1000.2 998.5 +12.0 12
07 18.07 ЮЗ 3 12 км слаб. дождь н/о +12.4 +12.3 99 +11 +11 1000.2 998.4
08 18.07 З 4 30 км слаб. ливневой дождь н/о +12.5 +12.4 99 +11 +11 1000.3 998.5
09 18.07 З 5 29 км в посл. час дождь н/о +13.0 +12.9 99 +11 +11 1000.3 998.5
10 18.07 З 3 40 км н/о +13.5 +12.6 94 +12 +12 1000.9 999.1
11 18.07 З 3 45 км н/о +15.2 +12.3 83 +14 +14 1000.8 999.1
12 18.07 СЗ 4 30 км н/о +15.1 +12.2 83 +14 +14 1000.9 999.1 3
13 18.07 З 2 40 км н/о +15.9 +12.1 78 +16 +16 1000.8 999.0
14 18.07 В 3 35 км н/о +13.7 +11.9 89 +12 +12 1001.3 999.5
15 18.07 ЮВ 3 45 км н/о +14.5 +11.8 84 +14 +14 1001.2 999.4
16 18.07 В 2 35 км н/о +14.0 +11.8 87 +14 +14 1001.3 999.5
17 18.07 ЮВ 3 10 км н/о +13.3 +12.1 92 +12 +12 1001.3 999.5
18 18.07 ЮВ 2 17 км в посл. час дождь н/о +12.8 +12.0 95 +12 +12 1001.5 999.7 +16.2 3
19 18.07 Ю 3 14 км в посл. час дождь н/о +13.0 +12.4 96 +11 +11 1001.4 999.6
20 18.07 Ю 3 27 км н/о +13.0 +11.6 91 +12 +12 1001.8 1000.0
21 18.07 Ю 6 30 км н/о +12.3 +10.7 90 +10 +10 1002.0 1000.2
22 18.07 Ю 6 21 км н/о +11.6 +10.9 95 +8 +8 1002.3 1000.5
23 18.07 Ю 6 17 км н/о +11.4 +11.0 97 +8 +8 1002.6 1000.8
00 19.07 Ю 6 16 км н/о +11.8 +11.3 97 +9 +9 1002.6 1000.9 0.0
01 19.07 Ю 5 15 км н/о +12.0 +11.5 97 +10 +10 1002.6 1000.8
02 19.07 Ю 4 13 км н/о +12.2 +11.8 97 +10 +10 1002.8 1001.0
03 19.07 Ю 4 7000 м слаб. морось с дождем н/о +12.1 +11.8 98 +10 +10 1003.0 1001.2
04 19.07 Ю 4 7000 м в посл. час дождь н/о +12.2 +12.0 99 +10 +10 1003.1 1001.3
05 19.07 ЮВ 3 5000 м в посл. час дождь н/о +12.0 +11.8 99 +10 +10 1003.3 1001.5
06 19.07 Ю 4 16 км н/о +12.6 +12.4 99 +10 +10 1003.4 1001.6 +11.4 0.6
07 19.07 Ю 3 25 км н/о +14.1 +12.9 92 +13 +13 1003.6 1001.9
08 19.07 Ю 4 35 км н/о +14.4 +11.9 85 +13 +13 1003.9 1002.1
09 19.07 Ю 5 30 км н/о +15.3 +12.3 82 +14 +14 1004.3 1002.5
10 19.07 Ю 7 30 км н/о +15.7 +12.6 82 +14 +14 1004.5 1002.8
11 19.07 ЮВ 6 35 км н/о +15.8 +12.8 82 +14 +14 1004.7 1003.0
12 19.07 Ю 7 30 км н/о +14.8 +12.9 88 +13 +13 1005.1 1003.3
13 19.07 Ю 7 35 км н/о +15.7 +13.1 85 +14 +14 1005.5 1003.7
14 19.07 ЮВ 7 16 км н/о +14.6 +12.5 87 +12 +12 1005.6 1003.8
15 19.07 ЮВ 8 29 км н/о +14.5 +12.3 87 +12 +12 1005.7 1004.0
17 19.07 Ю 6 30 км н/о +14.7 +12.7 88 +13 +13 1005.5 1003.7
18 19.07 Ю 6 20 км н/о +14.4 +12.5 88 +12 +12 1005.5 1003.7 +16.4
19 19.07 ЮВ 6 12 км н/о +13.4 +12.3 93 +11 +11 1005.6 1003.8
20 19.07 Ю 7 12 км н/о +12.9 +12.1 95 +10 +10 1005.7 1003.9
21 19.07 Ю 6 10 км н/о +12.8 +12.1 96 +10 +10 1005.9 1004.1
22 19.07 ЮВ 5 10 км н/о +12.8 +12.4 97 +11 +11 1006.0 1004.2
23 19.07 ЮВ 3 10 км н/о +12.7 +12.2 97 +11 +11 1006.1 1004.3
00 20.07 ЮВ 3 10 км н/о +12.6 +12.1 97 +11 +11 1006.0 1004.2
01 20.07 Ю 4 13 км н/о +12.6 +11.9 95 +11 +11 1006.0 1004.2
02 20.07 ЮВ 4 11 км н/о +12.3 +11.7 96 +10 +10 1005.4 1003.6
03 20.07 ЮВ 4 9000 м дымка н/о +12.8 +12.4 97 +11 +11 1005.3 1003.5
04 20.07 В 4 6000 м дымка н/о +12.6 +12.3 98 +11 +11 1005.0 1003.2
05 20.07 ЮВ 5 5000 м дымка н/о +12.9 +12.7 99 +11 +11 1004.8 1003.0
06 20.07 В 4 7000 м дымка н/о +12.9 +12.6 98 +11 +11 1004.5 1002.7 +12.2
07 20.07 В 5 8000 м дымка н/о +12.8 +12.5 98 +11 +11 1004.4 1002.6
08 20.07 В 5 11 км слаб. ливневой дождь н/о +13.1 +12.6 97 +11 +11 1004.2 1002.4
09 20.07 В 5 10 км в посл. час дождь н/о +13.1 +12.4 96 +11 +11 1003.6 1001.9
10 20.07 В 6 6000 м слаб. ливневой дождь н/о +13.1 +12.5 96 +11 +11 1003.4 1001.6
11 20.07 В 6 6000 м в посл. час дождь н/о +13.1 +12.8 98 +11 +11 1002.6 1000.8
12 20.07 В 8 2100 м слаб. морось н/о +13.1 +12.9 99 +10 +10 1002.0 1000.3 3
13 20.07 В 7 3100 м в посл. час дождь н/о +13.1 +13.0 99 +10 +10 1001.7 999.9
14 20.07 В 7 5000 м слаб. ливневой дождь н/о +13.1 +13.0 99 +10 +10 1001.5 999.7
15 20.07 В 6 6000 м в посл. час дождь н/о +13.4 +13.1 98 +11 +11 1001.5 999.7
16 20.07 ЮВ 5 600 м туман н/о +13.4 +13.2 99 +11 +11 1001.2 999.4
17 20.07 ЮВ 5 300 м туман н/о +13.3 +13.3 100 +11 +11 1001.4 999.6
18 20.07 ЮВ 4 1000 м в посл. час туман н/о +13.3 +13.3 100 +12 +12 1001.2 999.5 +13.8 6
19 20.07 В 2 700 м туман н/о +13.1 +13.1 100 +13 +13 1001.5 999.7
20 20.07 ЮЗ 2 600 м туман н/о +12.9 +12.9 100 +12 +12 1002.0 1000.2
21 20.07 ЮВ 1 600 м туман н/о +12.7 +12.7 100 +13 +13 1002.6 1000.8
22 20.07 СВ 1 700 м туман н/о +12.8 +12.8 100 +13 +13 1002.8 1001.0
23 20.07 З 5 8000 м слаб. морось с дождем н/о +13.0 +13.0 100 +11 +11 1003.1 1001.3
00 21.07 З 6 13 км в посл. час дождь н/о +12.6 +12.6 100 +10 +10 1003.6 1001.8 0.4
01 21.07 З 7 16 км н/о +12.5 +12.4 99 +9 +9 1004.1 1002.3
02 21.07 З 8
{13}
35 км н/о +12.4 +11.7 95 +9 +9 1004.4 1002.6
03 21.07 З 10
{14}
24 км н/о +12.2 +11.3 94 +9 +9 1004.7 1002.9
04 21.07 З 8
{14}
24 км н/о +12.2 +11.2 94 +9 +9 1005.4 1003.6
05 21.07 З 9 40 км н/о +12.3 +10.8 91 +9 +9 1006.0 1004.2
06 21.07 З 7 35 км н/о +12.3 +10.9 91 +9 +9 1006.6 1004.8 +12.0 0.4
07 21.07 З 6 35 км н/о +12.9 +11.6 92 +10 +10 1007.1 1005.3
08 21.07 З 6 40 км н/о +14.2 +12.1 87 +12 +12 1007.7 1005.9
09 21.07 ЮЗ 7 29 км н/о +15.5 +12.8 84 +14 +14 1008.1 1006.4
10 21.07 З 8 30 км н/о +16.2 +12.6 79 +15 +15 1008.7 1006.9
11 21.07 З 7 30 км н/о +16.0 +12.6 80 +14 +14 1009.2 1007.4
12 21.07 З 7 35 км н/о +16.1 +12.7 80 +15 +15 1009.6 1007.9

 

Местоположение метеостанции Болтасаунд (Великобритания): широта 60.75 долгота -0.85 высота над уровнем моря 15 м.

В архиве по умолчанию представлена погода в Болтасаунде за последнюю неделю. Архивные данные за месяц целиком и за предыдущие месяцы, начиная с января 2011 года, Вы можете получить, выбрав интересующий диапазон дат из раскрывающегося списка и нажав кнопку "Ввод!".


*Определитесь, кто Вы:
робот инопланетянин человек

Внимание! Время в таблицах - всемирное. Для получения местного времени необходимо прибавить поправку, которая равна 0 ч.

Смотрите также архив погоды в соседних городах и на ближайших метеорологических станциях:

Погода в Леруике (Великобритания) (71 км)
Погода на Фуле (Великобритания) (97 км)
Погода на Фэр-Айл (Великобритания) (142 км)
Погода на Гуллфаксе (Норвегия) (176 км)
Погода в Керкуолле (Великобритания) (231 км)
Погода на Сул-Скерри (Великобритания) (271 км)
Погода в Уике (Великобритания) (285 км)
Погода в Федье (Норвегия) (303 км)
Погода на Маяке Ytteroyane (Норвегия) (310 км)
Погода в Акраберге (Дания) (321 км)

Пояснения к столбцам:

Ветер - указаны скорость ветра в м/с - средняя за 10 мин, порывы в срок и между сроками (в фигурных скобках) и направление, откуда дует ветер: С - северный, СВ - северо-восточный, В - восточный, ЮВ - юго-восточный, Ю - южный, ЮЗ - юго-западный, З - западный, СЗ - северо-западный.
Видимость - горизонтальная дальность видимости в метрах или километрах. При видимости от 1 до 10 км при отсутствии осадков обычно наблюдается дымка, при ухудшении видимости до 1 км и менее - туман. В сухую погоду видимость может ухудшаться дымом, пылью или мглою.
Явления - указаны атмосферные явления, наблюдавшиеся в срок или в последний час перед сроком; фигурными скобками обозначены явления, наблюдавшиеся между сроками (за 1-3 часа до срока); квадратными скобками обозначены град или гололедные отложения с указанием их диаметра в мм.
Облачность - указаны через наклонную черту общая и нижняя облачность в баллах и высота нижней границы облаков в метрах; квадратными скобками обозначены формы облаков: Ci - перистые, Cs - перисто-слоистые, Cc - перисто-кучевые, Ac - высококучевые, As - высокослоистые, Sc - слоисто-кучевые, Ns - слоисто-дождевые, Cu - кучевые, Cb - кучево-дождевые. Подробнее классификацию облаков см. в Атласе облаков (PDF).
T - Температура воздуха - температура, измеренная на высоте 2 м над землей.
Td - Температура точки росы - температура, при понижении до которой содержащийся в воздухе водяной пар достигнет насыщения.
f - Относительная влажность воздуха - влажноcть воздуха, измеренная на высоте 2 м над землей.
Te - Эффективная температура - температура, которую ощущает одетый по сезону человек в тени. Характеристика душности погоды. При расчете учитывается влияние влажности воздуха и скорости ветра на теплоощущения человека.
Tes - Эффективная температура на солнце - температура, которую ощущает человек, с поправкой на солнечный нагрев. Характеристика знойности погоды. Зависит от высоты солнца над горизонтом, облачности и скорости ветра. Ночью, в пасмурную погоду, а также при ветре 12 м/с и более поправка равна нулю.
P - Атмосферное давление - приведенное к уровню моря атмосферное давление.
Po - Атмосферное давление - измеренное на уровне метеостанции атмосферное давление.
Tmin - Минимальная температура - минимум температуры воздуха на высоте 2 м над землей.
Tmax - Максимальная температура - максимум температуры воздуха на высоте 2 м над землей.
R - Количество осадков - Количество выпавших осадков за период времени, мм. При наведении курсора мыши на число - период времени, за который выпало указанное количество осадков.
R24 - Количество осадков - Количество выпавших осадков за 24 часа, мм.
S - Снежный покров - Высота снежного покрова, см. При наведении курсора мыши на число - состояние снежного покрова и степень покрытия местности в баллах.